TimeEDT,TemperatureF,Dew PointF,Humidity,Sea Level PressureIn,VisibilityMPH,Wind Direction,Wind SpeedMPH,Gust SpeedMPH,PrecipitationIn,Events,Conditions,WindDirDegrees,DateUTC
12:15 AM,50.0,44.6,82,30.32,10.0,Calm,Calm,-,N/A,,Clear,0,2013-04-28 04:15:00
12:35 AM,48.4,43.2,82,30.32,10.0,Calm,Calm,-,N/A,,Clear,0,2013-04-28 04:35:00
12:55 AM,48.7,43.0,80,30.31,10.0,Calm,Calm,-,N/A,,Clear,0,2013-04-28 04:55:00
1:15 AM,47.5,41.9,81,30.31,10.0,Calm,Calm,-,N/A,,Clear,0,2013-04-28 05:15:00
1:35 AM,45.7,41.0,84,30.31,10.0,Calm,Calm,-,N/A,,Clear,0,2013-04-28 05:35:00
1:55 AM,46.4,41.4,83,30.30,10.0,Calm,Calm,-,N/A,,Clear,0,2013-04-28 05:55:00
2:15 AM,45.1,41.0,85,30.30,10.0,Calm,Calm,-,N/A,,Clear,0,2013-04-28 06:15:00
2:35 AM,45.1,41.0,85,30.29,10.0,Calm,Calm,-,N/A,,Clear,0,2013-04-28 06:35:00
2:55 AM,45.1,41.2,86,30.29,10.0,Calm,Calm,-,N/A,,Clear,0,2013-04-28 06:55:00
3:15 AM,45.1,41.4,87,30.29,10.0,Calm,Calm,-,N/A,,Clear,0,2013-04-28 07:15:00
3:35 AM,45.9,42.3,87,30.28,10.0,Calm,Calm,-,N/A,,Clear,0,2013-04-28 07:35:00
3:55 AM,45.9,42.3,87,30.29,10.0,Calm,Calm,-,N/A,,Clear,0,2013-04-28 07:55:00
4:15 AM,46.4,42.8,87,30.28,10.0,Calm,Calm,-,N/A,,Clear,0,2013-04-28 08:15:00
4:35 AM,46.4,42.6,87,30.27,10.0,Calm,Calm,-,N/A,,Clear,0,2013-04-28 08:35:00
4:55 AM,47.5,43.9,87,30.27,10.0,Calm,Calm,-,N/A,,Clear,0,2013-04-28 08:55:00
5:15 AM,47.5,43.9,87,30.27,10.0,Calm,Calm,-,N/A,,Clear,0,2013-04-28 09:15:00
5:35 AM,47.1,43.5,87,30.27,10.0,Calm,Calm,-,N/A,,Clear,0,2013-04-28 09:35:00
5:55 AM,46.6,43.5,89,30.27,10.0,Calm,Calm,-,N/A,,Clear,0,2013-04-28 09:55:00
6:15 AM,46.8,43.7,89,30.27,10.0,Calm,Calm,-,N/A,,Clear,0,2013-04-28 10:15:00
6:35 AM,46.4,43.2,88,30.27,10.0,Calm,Calm,-,N/A,,Clear,0,2013-04-28 10:35:00
6:55 AM,46.2,43.2,89,30.28,10.0,Calm,Calm,-,N/A,,Clear,0,2013-04-28 10:55:00
7:15 AM,46.9,44.1,90,30.29,10.0,Calm,Calm,-,N/A,,Clear,0,2013-04-28 11:15:00
7:35 AM,49.6,46.2,88,30.29,10.0,Calm,Calm,-,N/A,,Clear,0,2013-04-28 11:35:00
7:55 AM,50.0,45.5,85,30.29,10.0,Calm,Calm,-,N/A,,Clear,0,2013-04-28 11:55:00
8:15 AM,52.3,46.6,81,30.30,10.0,Calm,Calm,-,N/A,,Clear,0,2013-04-28 12:15:00
8:35 AM,55.0,46.0,72,30.29,10.0,East,3.5,-,N/A,,Clear,90,2013-04-28 12:35:00
8:55 AM,55.0,44.8,68,30.29,10.0,Calm,Calm,-,N/A,,Clear,0,2013-04-28 12:55:00
9:15 AM,56.3,45.7,68,30.28,10.0,Calm,Calm,-,N/A,,Clear,0,2013-04-28 13:15:00
9:35 AM,57.6,44.1,61,30.28,10.0,SE,3.5,-,N/A,,Clear,140,2013-04-28 13:35:00
9:55 AM,58.3,43.5,58,30.28,10.0,ESE,3.5,-,N/A,,Clear,120,2013-04-28 13:55:00
10:15 AM,60.6,42.6,52,30.28,10.0,SE,5.8,-,N/A,,Clear,130,2013-04-28 14:15:00
10:35 AM,62.6,42.4,48,30.29,10.0,SSE,5.8,-,N/A,,Clear,150,2013-04-28 14:35:00
10:55 AM,65.3,44.8,47,30.27,10.0,ESE,4.6,-,N/A,,Clear,120,2013-04-28 14:55:00
11:15 AM,65.3,44.8,47,30.27,10.0,SE,3.5,-,N/A,,Clear,140,2013-04-28 15:15:00
11:35 AM,65.3,41.9,42,30.28,10.0,East,3.5,-,N/A,,Clear,80,2013-04-28 15:35:00
11:55 AM,65.3,38.8,38,30.27,10.0,SE,5.8,-,N/A,,Clear,130,2013-04-28 15:55:00
12:15 PM,65.3,38.8,38,30.27,10.0,SE,3.5,-,N/A,,Clear,130,2013-04-28 16:15:00
12:35 PM,65.3,39.4,39,30.26,10.0,SSE,4.6,-,N/A,,Scattered Clouds,150,2013-04-28 16:35:00
12:55 PM,65.3,39.0,38,30.26,10.0,SE,4.6,-,N/A,,Scattered Clouds,130,2013-04-28 16:55:00
1:15 PM,65.3,36.7,35,30.25,10.0,SSE,4.6,-,N/A,,Scattered Clouds,160,2013-04-28 17:15:00
1:35 PM,65.3,38.5,37,30.26,10.0,SE,4.6,-,N/A,,Scattered Clouds,140,2013-04-28 17:35:00
1:55 PM,65.3,39.9,39,30.25,10.0,Calm,Calm,-,N/A,,Scattered Clouds,0,2013-04-28 17:55:00
2:15 PM,65.7,40.6,40,30.24,10.0,SSE,4.6,-,N/A,,Scattered Clouds,160,2013-04-28 18:15:00
2:35 PM,65.3,36.3,34,30.24,10.0,Calm,Calm,-,N/A,,Scattered Clouds,0,2013-04-28 18:35:00
2:55 PM,65.3,37.4,36,30.23,10.0,East,3.5,-,N/A,,Scattered Clouds,90,2013-04-28 18:55:00
3:15 PM,65.3,38.1,37,30.22,10.0,Calm,Calm,-,N/A,,Mostly Cloudy,0,2013-04-28 19:15:00
3:35 PM,65.3,38.5,37,30.21,10.0,Calm,Calm,-,N/A,,Overcast,0,2013-04-28 19:35:00
3:55 PM,65.3,44.4,47,30.19,10.0,Calm,Calm,-,N/A,Rain,Light Rain,0,2013-04-28 19:55:00
4:15 PM,65.3,46.4,50,30.19,10.0,Calm,Calm,-,N/A,,Scattered Clouds,0,2013-04-28 20:15:00
4:55 PM,65.3,51.6,61,30.19,10.0,Calm,Calm,-,N/A,,Scattered Clouds,0,2013-04-28 20:55:00
5:15 PM,65.3,53.8,66,30.18,10.0,Calm,Calm,-,N/A,,Scattered Clouds,0,2013-04-28 21:15:00
5:35 PM,63.0,53.8,72,30.18,10.0,Calm,Calm,-,N/A,,Scattered Clouds,0,2013-04-28 21:35:00
5:55 PM,63.3,55.4,75,30.18,10.0,Calm,Calm,-,N/A,Rain,Light Rain,0,2013-04-28 21:55:00
6:15 PM,62.6,55.9,79,30.17,10.0,Calm,Calm,-,N/A,Rain,Light Rain,0,2013-04-28 22:15:00
6:35 PM,60.6,53.1,76,30.17,10.0,Calm,Calm,-,N/A,Rain,Light Rain,0,2013-04-28 22:35:00
6:55 PM,60.1,54.3,81,30.17,10.0,Calm,Calm,-,N/A,Rain,Light Rain,0,2013-04-28 22:55:00
7:15 PM,58.1,54.1,87,30.16,10.0,Calm,Calm,-,N/A,Rain,Light Rain,0,2013-04-28 23:15:00
7:35 PM,58.1,54.5,88,30.16,10.0,Calm,Calm,-,N/A,Rain,Light Rain,0,2013-04-28 23:35:00
7:55 PM,58.1,53.6,85,30.16,10.0,Calm,Calm,-,N/A,Rain,Light Rain,0,2013-04-28 23:55:00
8:15 PM,57.9,53.6,86,30.16,10.0,Calm,Calm,-,0.01,Rain,Light Rain,0,2013-04-29 00:15:00
8:35 PM,57.6,53.8,87,30.16,10.0,Calm,Calm,-,0.01,Rain,Light Rain,0,2013-04-29 00:35:00
8:55 PM,57.4,54.1,89,30.17,10.0,Calm,Calm,-,0.02,Rain,Light Rain,0,2013-04-29 00:55:00
9:15 PM,56.3,53.6,91,30.18,7.0,Calm,Calm,-,0.02,Rain,Rain,0,2013-04-29 01:15:00
9:35 PM,56.3,53.1,89,30.17,10.0,Calm,Calm,-,0.02,Rain,Light Rain,0,2013-04-29 01:35:00
9:55 PM,56.3,53.1,89,30.18,10.0,Calm,Calm,-,0.03,Rain,Rain,0,2013-04-29 01:55:00
10:15 PM,56.3,53.2,89,30.17,10.0,Calm,Calm,-,N/A,,Light Drizzle,0,2013-04-29 02:15:00
10:35 PM,56.3,53.1,89,30.16,10.0,Calm,Calm,-,N/A,Rain,Rain,0,2013-04-29 02:35:00
10:55 PM,56.3,53.1,89,30.15,10.0,Calm,Calm,-,0.01,Rain,Light Rain,0,2013-04-29 02:55:00
11:15 PM,56.3,53.2,89,30.15,10.0,Calm,Calm,-,N/A,Rain,Light Rain,0,2013-04-29 03:15:00
11:35 PM,56.3,53.2,89,30.14,10.0,Calm,Calm,-,0.01,Rain,Light Rain,0,2013-04-29 03:35:00
11:55 PM,55.8,52.5,89,30.14,10.0,Calm,Calm,-,0.01,Rain,Light Rain,0,2013-04-29 03:55:00